Simultaneous Nadir Overpasses (SNOs) Predictions

Prediction of SNOs between TERRA and METOP-C Satellite Orbit:

Table of predicted SNOs for the next 14.0 days since TLE Epoch: 1/16/2021
Index Date (TERRA) Time (TERRA) Lat,Lon (TERRA) SZA (TERRA ) Date (METOP-C) Time (METOP-C) Lat,Lon (METOP-C) SZA (METOP-C ) Distance(km) Time Diff (sec)
1 01/17/2021 04:42:48 -81.27, -24.40 75.75 01/17/2021 04:41:36 -81.27, -24.27 75.76 2.21 72
2 01/17/2021 05:32:14 81.28, 143.37 104.27 01/17/2021 05:32:16 81.28, 143.38 104.27 0.36 2
3 01/17/2021 06:21:15 -81.70, -38.81 74.36 01/17/2021 06:22:22 -81.27, -35.66 74.21 70.53 67
4 01/20/2021 00:17:02 -81.27, 42.00 76.36 01/20/2021 00:15:59 -81.28, 42.18 76.36 3.19 63
5 01/20/2021 01:06:28 81.27,-150.27 103.65 01/20/2021 01:06:39 81.28,-150.25 103.66 0.77 11
6 01/22/2021 19:51:15 -81.28, 108.73 76.97 01/22/2021 19:50:22 -81.28, 108.61 77.01 2.22 53
7 01/22/2021 20:40:41 81.29, -83.56 103.04 01/22/2021 20:41:01 81.29, -83.50 103.05 1.17 20
8 01/25/2021 15:25:28 -81.28, 175.04 77.68 01/25/2021 15:24:44 -81.28, 175.02 77.70 0.43 44
9 01/25/2021 16:14:54 81.28, -17.28 102.32 01/25/2021 16:15:23 81.28, -17.16 102.35 2.02 29
10 01/28/2021 10:59:42 -81.27,-118.68 78.44 01/28/2021 10:59:07 -81.28,-118.58 78.44 1.75 35



Historial Predications of SNOs between TERRA and METOP-C
